Simultaneous Nadir Overpasses (SNOs) Predictions

Prediction of SNOs between NOAA-21 and LANDSAT-8 Satellite Orbit:

Table of predicted SNOs for the next 14.0 days since TLE Epoch: 3/30/2024
Index Date (NOAA-21) Time (NOAA-21) Lat,Lon (NOAA-21) SZA (NOAA-21 ) Date (LANDSAT-8) Time (LANDSAT-8) Lat,Lon (LANDSAT-8) SZA (LANDSAT-8 ) Distance(km) Time Diff (sec)
1 03/30/2024 22:36:07 70.61,-163.83 66.38 03/30/2024 22:37:17 70.50,-162.48 66.21 51.34 70
2 03/30/2024 23:26:38 -69.99, 4.46 114.30 03/30/2024 23:26:53 -70.01, 4.43 114.28 2.40 15
3 03/31/2024 00:17:22 69.88, 171.94 65.58 03/31/2024 00:16:20 69.90, 171.93 65.61 3.02 62
4 04/02/2024 14:52:52 70.05, -47.18 64.75 04/02/2024 14:53:53 70.07, -47.24 64.76 3.01 61
5 04/02/2024 15:43:34 -69.95, 120.29 115.38 04/02/2024 15:43:23 -69.96, 120.24 115.36 2.20 11
6 04/02/2024 16:34:08 69.31, -71.47 63.95 04/02/2024 16:32:59 69.36, -72.94 64.05 57.93 69
7 04/05/2024 07:09:48 70.03, 68.62 63.70 04/05/2024 07:10:22 70.03, 68.58 63.69 1.46 34
8 04/05/2024 08:00:30 -69.93,-123.91 116.42 04/05/2024 07:59:52 -69.92,-123.94 116.43 1.26 38
9 04/07/2024 22:36:07 -70.50, 16.36 116.82 04/07/2024 22:37:18 -70.39, 17.33 116.97 38.20 71
10 04/07/2024 23:26:43 69.98,-175.53 62.63 04/07/2024 23:26:50 70.00,-175.58 62.65 3.14 7
11 04/08/2024 00:17:25 -69.87, -8.05 117.50 04/08/2024 00:16:20 -69.90, -8.10 117.47 3.24 65
12 04/10/2024 14:52:55 -70.09, 132.77 118.24 04/10/2024 14:53:50 -70.09, 132.79 118.24 1.01 55
13 04/10/2024 15:43:38 69.99, -59.77 61.65 04/10/2024 15:43:16 69.98, -59.73 61.63 2.31 22



Historial Predications of SNOs between NOAA-21 and LANDSAT-8
